Location: B?ezina
(49.8085°N, 13.6013°E)
Time: 10:28:40
(UTC+00:00)

USA 229 DEB - Pass Details

Date: 19 May 2025
Orbit: 872 x 1339 km, 63.4° (Epoch: 20 June)

Event Time Altitude Azimuth Distance (km) Brightness Sun altitude
Exits shadow 23:20:43 26° 225° (SW) 1,760 4.4 -20.1°
Maximum altitude 23:24:24 85° 312° (NW) 1,003 3.5 -20.0°
Drops below altitude 10° 23:31:18 10° 43° (NE) 2,935 6.8 -19.9°
Sets 23:34:08 0° 44° (NE) 3,968 7.6 -19.8°
